Probability
0 0 0 0 0 0 0 0 0 0 0 0 0 0 0 0 0 0 0 0 0 0 0 0 0 0 0 0 0 0 0 0 0 0 0 0 0 0 0 0 0 0 0
0 0 0 0 0 0 0 0 0 0 0 0 0 0 0 0 0 0 0 0 0 0 0 0 0 0 0 0 0 0 0 0 0 0 0 0 0 0 0 0 0 0 0
0 0 0 0 0 0 0 0 0 0 0 0 0 0 0 0 0 0 0 0 0 0 0 0 0 0 0 0 0 0 0 0 0 0 0 0 0 0 0 0 0 0 0
1 1 0 0 0 0 0 0 0 0 0 0 0 0 0 0 0 0 0 0 0 0 0 0 0 0 0 0 0 0 0 0 0 0 0 0 0 0 0 0 0 0 0
3 2 2 2 1 0 0 0 0 0 0 0 0 0 0 0 0 0 0 0 0 0 0 0 0 0 0 0 0 0 0 0 0 0 0 0 0 0 0 0 0 0 0
6 4 4 4 3 1 0 0 0 0 0 0 0 0 0 0 0 0 0 0 0 0 0 0 0 0 0 0 0 0 0 0 0 0 0 0 0 0 0 0 0 0 0
9 7 6 7 6 2 1 0 0 0 0 0 0 0 0 0 0 0 0 0 0 0 0 0 0 0 0 0 0 0 0 0 0 0 0 0 0 0 0 0 0 0 0
10 8 6 6 5 3 1 0 0 0 0 0 0 0 0 0 0 0 0 0 0 0 0 0 0 0 0 0 1 1 1 1 0 0 0 0 0 0 0 0 0 0 0
7 6 5 4 2 2 1 0 0 0 0 0 0 0 0 0 0 0 0 0 0 0 0 0 0 0 0 0 1 2 2 2 1 0 0 0 0 0 1 1 0 0 0
4 4 4 3 1 0 0 0 0 0 0 0 0 0 0 0 0 0 0 0 0 0 0 0 0 0 0 0 0 1 3 2 1 0 0 0 0 0 1 1 0 0 0
2 2 2 2 1 0 0 0 0 0 0 0 0 1 0 0 0 0 1 1 2 2 2 1 1 1 0 0 0 1 3 3 1 0 0 1 1 1 1 1 0 0 0
1 1 1 1 0 0 0 0 0 0 0 0 0 0 0 0 0 0 2 3 5 5 4 3 2 2 1 0 1 2 3 3 1 0 2 3 4 3 3 2 1 1 1
0 1 1 1 0 0 0 0 0 0 0 0 0 0 0 0 0 0 1 3 5 5 4 2 2 2 1 1 1 2 3 3 1 1 3 6 8 7 7 5 3 3 3
6 6 5 4 2 1 1 0 0 1 0 0 0 1 1 1 0 0 0 1 2 2 1 1 0 1 2 1 1 1 2 2 1 1 3 7 9 10 9 8 6 5 4
18 17 13 10 7 5 3 1 0 1 1 0 0 1 2 1 0 0 0 0 1 0 0 0 0 1 1 1 0 1 1 1 1 1 3 6 8 8 8 7 8 6 3
25 24 19 12 10 10 7 3 1 1 1 0 0 2 2 1 0 0 0 0 0 0 0 0 0 0 0 0 0 1 1 1 1 1 2 3 5 5 5 6 8 7 4
26 24 18 11 9 10 8 4 2 2 1 0 0 1 2 1 0 0 0 0 0 0 0 0 0 0 0 0 0 1 1 1 1 1 1 1 2 2 2 5 8 8 7
21 19 14 9 7 6 4 3 2 2 1 0 0 1 1 0 0 0 1 0 0 0 0 0 0 0 0 0 0 0 0 1 1 0 0 1 1 0 1 3 7 9 8
12 12 9 6 4 2 1 1 1 1 0 0 0 0 0 0 0 0 0 0 0 0 0 0 0 0 0 0 0 0 0 0 0 0 0 0 0 0 0 1 4 6 7
5 6 5 4 2 0 0 0 0 0 0 0 0 0 0 0 0 0 0 0 0 0 0 0 0 0 0 0 0 0 0 0 0 0 0 0 0 0 0 0 2 3 4
4 3 3 2 1 0 0 0 0 0 0 0 0 0 0 0 0 0 0 0 0 0 0 0 0 0 0 0 0 0 0 0 0 0 0 0 0 0 0 0 2 3 3
5 3 1 1 0 0 0 0 0 0 0 0 0 0 0 0 0 0 0 0 0 0 0 0 0 0 0 0 0 0 0 0 0 0 0 0 0 0 0 0 1 2 2
5 3 1 0 0 0 0 0 0 0 0 0 0 0 0 0 0 0 0 0 0 0 0 0 0 0 0 0 0 0 0 0 0 0 0 0 0 0 0 0 0 1 1
3 2 1 0 0 0 0 0 0 0 0 0 0 0 0 0 0 0 0 0 0 0 0 0 0 0 0 0 0 0 0 0 0 0 0 0 0 0 0 0 0 0 0
2 1 0 0 0 0 0 0 0 0 0 0 0 0 0 0 0 0 0 0 0 0 0 0 0 0 0 0 0 0 0 0 0 0 0 0 0 0 0 0 0 0 0
2 1 0 0 0 0 0 0 0 0 0 0 0 0 0 0 0 0 0 0 0 0 0 0 0 0 0 0 0 0 0 0 0 0 0 0 0 0 0 0 0 0 0
Wind_Speed
8 8 16 17 18 18 18 18 17 17 17 17 16 16 16 16 15 14 14 13 13 12 12 11 11 12 12 12 12 11 11 11 11 12 13 13 13 13 14 15 15 11 16
12 11 16 17 18 18 17 17 17 17 16 16 16 15 15 14 14 13 13 13 12 12 11 11 11 11 11 11 11 10 10 10 10 11 12 12 12 13 14 14 14 10 16
14 11 14 17 17 17 17 17 16 16 16 15 15 14 14 13 13 12 12 12 11 11 11 10 10 10 10 9 9 9 9 9 9 10 10 6 7 12 14 14 15 15 15
14 10 12 17 17 17 17 16 16 16 16 15 14 14 13 12 12 11 11 11 10 10 10 9 9 9 8 8 8 8 7 7 6 7 5 4 5 12 14 14 14 14 14
12 9 13 19 18 17 17 16 16 16 15 15 14 13 12 11 11 11 10 10 9 9 9 8 8 8 7 6 6 6 6 5 5 5 4 4 5 12 14 14 13 13 13
11 9 13 18 18 17 17 16 15 15 15 14 13 12 11 11 10 10 9 9 9 8 8 7 7 6 5 5 4 4 4 4 3 3 5 5 5 11 14 14 13 13 13
11 8 12 18 18 17 16 16 15 14 14 13 12 12 11 10 9 9 8 8 8 8 7 7 6 5 4 3 2 2 3 4 3 3 5 5 6 12 14 14 13 13 12
12 9 11 17 18 17 16 15 15 14 13 13 12 11 9 8 7 7 7 7 7 7 7 6 6 5 3 2 1 1 2 3 3 3 4 5 9 12 14 14 13 13 12
12 10 7 9 12 16 16 15 14 13 12 12 11 10 8 8 7 7 6 6 6 6 6 6 6 5 4 3 2 2 3 2 2 1 5 4 10 13 14 14 13 13 12
9 9 7 7 7 7 9 13 13 12 11 10 10 9 8 7 7 7 6 6 7 7 7 7 7 6 6 5 4 4 4 2 1 1 2 5 11 14 14 14 14 13 13
9 7 7 7 6 6 6 9 10 10 9 8 6 7 5 2 2 3 5 7 8 7 7 7 7 7 6 5 6 6 4 1 0 1 2 7 12 14 14 14 14 14 13
10 9 7 8 7 6 6 5 3 4 4 3 2 2 2 1 1 1 3 5 6 6 5 6 6 5 4 2 4 5 2 2 1 1 3 9 12 14 14 15 15 15 14
11 9 8 7 7 6 4 4 2 2 2 2 2 2 2 2 1 1 1 0 1 1 1 1 1 1 1 1 2 2 2 2 1 1 2 9 12 13 14 15 15 16 15
9 8 8 7 6 6 5 4 3 3 2 2 2 2 3 2 2 2 1 1 1 1 0 0 0 1 1 2 2 2 2 2 2 1 3 8 11 12 13 14 14 15 16
9 8 7 7 7 6 5 4 4 3 3 3 3 3 4 3 2 2 1 1 1 1 0 0 1 1 1 2 2 2 2 3 3 2 2 8 11 14 15 16 16 16 17
9 8 7 7 7 7 5 4 4 4 4 4 3 4 4 3 3 2 2 2 1 1 0 0 1 0 1 1 2 1 2 2 2 3 3 6 12 14 15 16 17 18 18
9 9 8 7 7 7 6 5 4 4 4 4 3 4 4 4 4 3 2 2 2 2 2 2 2 2 1 2 2 2 2 2 3 4 4 4 6 12 15 16 16 17 18
9 8 7 8 7 6 5 5 4 4 4 4 3 3 4 4 4 4 3 2 2 3 3 2 2 2 2 2 3 3 2 2 3 4 4 5 5 6 10 16 16 17 18
9 8 7 7 7 6 5 4 4 4 4 3 3 3 3 4 5 4 3 2 2 3 3 2 2 2 2 3 3 3 3 3 3 4 4 6 6 6 5 10 16 17 19
7 7 7 7 6 6 4 4 3 3 2 2 3 3 4 4 4 4 3 3 3 3 3 2 2 2 1 2 3 4 3 4 3 3 4 4 4 6 6 7 7 10 17
7 8 7 6 5 5 3 3 3 2 2 2 2 4 4 4 4 4 3 3 3 3 2 2 2 3 3 2 3 4 4 3 3 2 2 2 3 4 4 5 4 4 5
8 8 7 7 6 5 4 3 3 3 2 2 2 2 3 4 4 4 4 3 2 2 3 3 3 2 2 3 2 2 4 6 4 4 3 2 2 2 2 4 4 4 4
9 9 8 7 6 6 5 3 3 3 3 2 2 1 2 3 4 4 4 3 2 2 1 1 2 2 1 2 2 2 1 2 4 4 4 4 4 2 2 2 2 4 4
10 8 8 7 6 6 5 5 5 3 2 2 2 2 1 2 2 3 4 4 3 2 1 1 2 2 2 1 2 1 2 3 1 4 4 4 5 4 4 3 3 3 3
10 9 8 8 7 6 6 6 6 4 3 2 2 1 1 1 1 2 3 3 3 2 1 1 1 1 1 1 0 1 1 1 1 1 4 5 5 4 4 3 3 3 3
9 9 9 8 7 6 6 6 6 6 5 3 2 1 0 1 1 1 3 3 3 2 2 2 1 1 1 1 1 1 1 0 1 0 2 3 4 4 4 3 3 3 3
Wind_Direction
146 150 142 135 131 127 124 120 117 115 113 111 109 108 108 107 107 106 106 105 105 104 104 101 98 96 94 94 94 95 97 100 105 109 111 111 113 116 116 115 113 112 114
143 146 140 136 133 131 128 125 123 121 119 118 117 115 114 113 112 111 110 108 107 105 104 103 101 99 96 96 96 95 96 98 102 106 107 108 113 117 116 115 115 120 119
134 137 136 135 134 132 131 129 127 126 125 124 123 122 121 120 119 117 115 113 111 109 107 106 105 102 99 98 96 95 95 97 102 105 103 95 106 115 119 118 118 119 119
130 131 134 133 133 133 132 131 130 130 130 129 129 128 127 126 125 123 120 118 115 114 113 112 110 107 103 98 95 92 90 90 96 112 113 117 114 119 120 121 121 122 122
125 127 134 132 132 133 133 133 134 134 134 134 133 133 132 132 131 129 127 124 121 119 117 117 116 114 110 103 96 87 79 73 79 104 123 121 119 127 126 126 126 125 126
124 126 134 132 132 133 134 135 135 136 137 137 138 138 138 137 137 135 134 133 129 126 124 124 125 123 118 112 102 87 66 47 63 106 126 131 134 137 135 133 132 131 130
128 128 133 133 133 134 135 136 137 137 138 139 141 143 144 144 143 142 141 139 139 138 135 135 139 140 136 129 111 79 42 27 67 128 141 144 150 145 142 141 139 138 135
133 131 135 136 137 137 138 138 139 141 142 144 145 145 147 147 147 147 148 149 150 151 151 151 155 161 165 171 183 358 5 12 59 119 149 156 160 153 150 149 148 146 145
136 135 136 140 141 142 143 143 144 145 147 148 148 150 154 158 161 165 168 170 171 171 173 175 178 183 192 210 240 277 308 345 51 129 167 165 167 161 158 156 156 155 154
139 142 142 141 141 142 145 147 147 148 150 152 154 157 162 170 178 185 185 187 188 190 194 198 199 203 208 220 240 257 276 316 71 172 170 182 176 170 166 164 164 163 163
148 151 151 148 146 143 146 153 151 152 155 155 160 167 166 176 198 196 199 198 203 204 206 213 216 216 217 225 237 248 262 248 179 174 188 189 184 180 175 173 173 172 171
162 165 161 158 156 155 158 144 145 148 147 142 147 151 137 150 210 177 204 203 207 211 215 217 223 227 224 228 247 250 240 236 224 196 206 193 191 187 184 181 180 180 179
167 165 163 161 158 157 145 143 142 132 132 132 131 129 115 91 65 63 68 211 237 224 253 261 270 248 215 219 229 235 226 226 219 215 215 199 194 188 192 190 187 186 186
152 153 152 150 144 141 135 138 140 135 131 127 119 114 102 90 72 63 53 29 39 47 107 190 232 250 249 243 235 234 227 218 220 210 215 201 196 194 197 198 197 195 194
144 145 146 138 134 133 124 131 130 137 136 127 112 104 106 100 89 74 55 44 39 36 49 211 223 242 261 268 263 245 241 225 220 213 209 205 204 202 201 203 205 205 204
143 141 139 129 129 124 120 119 123 125 124 116 114 115 108 105 97 80 62 50 23 6 10 354 328 306 295 296 297 276 241 238 226 212 210 222 220 214 214 211 212 212 210
143 136 137 132 124 119 120 122 123 126 124 121 123 118 111 106 96 87 72 44 16 12 20 23 11 27 8 345 325 307 275 254 248 229 215 215 225 224 222 219 217 219 215
135 134 142 134 124 119 120 122 126 129 127 126 124 117 114 108 99 85 73 40 16 30 36 41 35 34 18 357 328 310 306 287 269 252 231 221 221 226 228 226 223 223 222
141 138 133 131 131 127 124 120 119 119 122 133 130 123 118 110 103 96 85 55 42 45 36 31 45 45 13 344 317 310 310 291 278 274 252 232 223 219 217 228 228 226 226
135 133 134 133 132 127 114 100 91 93 106 125 138 139 131 123 114 104 94 65 57 52 31 24 23 20 11 332 327 331 304 295 292 277 263 248 229 222 218 223 226 231 230
133 134 137 141 145 133 121 118 117 126 133 133 157 153 144 136 124 114 105 85 73 64 39 24 24 15 356 358 14 341 326 324 330 318 307 281 248 230 219 218 216 217 228
148 148 152 154 152 146 144 147 148 142 141 145 145 148 156 151 146 137 132 122 99 74 43 35 47 38 353 19 49 21 349 341 339 353 0 9 335 293 246 226 215 215 220
166 168 167 167 158 154 147 120 92 73 61 61 82 136 188 172 162 153 153 144 129 111 82 48 75 86 18 348 48 96 62 316 313 325 349 6 356 348 323 298 247 230 224
179 174 167 167 161 157 146 135 135 136 141 166 170 189 222 202 187 178 165 156 150 136 122 115 115 115 105 5 350 49 165 194 262 318 324 343 350 353 339 328 308 276 247
179 173 168 165 165 161 151 146 136 135 151 157 140 143 231 280 250 188 167 157 155 154 160 147 122 119 138 163 250 328 353 18 109 155 309 327 335 330 327 319 308 296 277
178 173 169 167 170 165 158 153 149 151 154 145 136 137 296 322 334 136 148 153 162 168 184 203 205 205 205 210 212 201 187 234 280 226 271 302 309 306 315 319 318 309 293